User: anonymous   Login
Location: Unspecified
(0.0000°N, 0.0000°E)
Time: 00:14:19
(UTC+00:00)
Language:

TDRS 9 - Orbit

View from above orbital plane
View from above orbital plane
View from above satellite
View from above satellite

Ground track
Ground track

The orbit data is extracted from the following two-line orbital elements,

1 27389U 02011A   18112.24244273 -.00000116 +00000-0 +00000-0 0  9993
2 27389 005.8817 075.4364 0022105 262.4135 307.5536 01.00272596060582
Epoch (UTC): 22 April 2018 05:49:07
Eccentricity: 0.0022105
inclination: 5.8817°
perigee height: 35693 km
apogee height: 35879 km
right ascension of ascending node: 75.4364°
argument of perigee: 262.4135°
revolutions per day: 1.00272596
mean anomaly at epoch: 307.5536°
orbit number at epoch: 6058

The dashed part of the orbit path shows where the satellite is in the earth's shadow,  

DLR